Wind_Speed
23 23 21 16 8 7 28 31 31 29 37 28 23 24 20 23 25 29 30 23 31 35 28 22 22 22 21 18 15 13 9 7 6 5 6 8 9 4 2 0 3 5 2 8 15 15 19 20 20
23 24 12 8 9 18 20 32 35 32 34 27 29 27 25 29 30 33 18 29 32 37 28 24 23 22 20 16 14 12 9 8 6 3 5 7 4 3 3 3 6 3 3 7 11 13 20 23 24
26 22 27 3 23 32 30 36 36 35 32 26 23 27 26 33 30 29 22 29 34 37 32 25 25 25 20 15 11 6 9 7 6 3 5 4 5 6 2 4 7 7 4 7 7 13 21 23 26
21 25 23 32 41 34 36 37 37 29 25 24 23 25 26 28 32 26 30 31 31 40 30 28 29 27 21 14 10 6 4 7 9 3 5 5 8 5 7 8 9 7 7 8 7 13 22 25 31
26 25 27 25 33 34 34 37 30 27 22 21 20 26 26 34 27 27 32 30 34 33 28 33 32 26 21 14 9 5 5 8 6 7 7 13 9 6 8 8 11 9 6 13 12 13 21 26 28
28 30 32 32 35 34 34 33 24 23 19 21 22 24 26 28 36 33 32 30 29 25 26 32 30 23 17 12 6 5 5 8 8 13 12 17 10 7 9 10 9 8 9 11 13 18 21 26 27
31 32 31 34 37 30 28 22 20 19 27 22 23 24 24 26 29 31 27 32 25 24 29 35 27 18 13 11 6 5 6 10 16 17 18 15 9 4 2 4 5 6 4 11 14 20 22 26 28
33 31 27 32 28 24 25 22 23 22 26 25 22 22 23 22 28 26 25 22 27 27 33 35 25 14 9 8 5 8 11 15 20 19 20 14 9 6 5 3 7 12 8 12 12 17 23 25 30
30 27 26 27 25 23 23 23 24 23 22 23 21 18 21 20 24 24 16 19 22 29 35 30 18 7 5 6 6 13 15 19 21 22 19 14 10 3 5 11 10 11 13 10 10 16 24 26 28
26 23 24 22 26 23 22 22 21 21 19 18 17 17 15 21 21 18 13 17 23 31 32 21 12 1 3 6 10 16 18 22 24 17 16 13 7 10 10 2 7 9 13 12 9 14 20 26 29
20 21 21 23 23 17 16 17 18 24 20 15 14 16 14 14 15 14 9 15 24 28 29 21 18 8 6 9 16 20 23 25 19 13 13 11 8 9 8 5 4 11 12 11 8 12 15 18 22
21 22 24 19 16 15 14 17 22 29 16 12 13 14 15 12 9 8 10 10 20 28 31 23 17 9 9 14 25 24 28 21 18 12 12 10 8 2 2 6 9 10 14 11 7 9 15 18 18
16 3 12 21 10 22 16 19 26 20 14 18 12 11 13 12 12 7 6 5 14 24 29 23 19 11 12 24 28 25 23 19 17 16 12 7 8 3 1 11 8 7 12 11 2 7 8 12 21
9 2 12 6 2 16 15 25 26 9 25 24 14 11 13 12 12 10 9 5 7 14 21 22 16 13 26 22 20 15 16 10 16 12 12 6 10 8 6 9 7 7 9 10 1 7 11 15 19
10 8 8 3 15 21 19 23 22 9 19 23 15 12 14 12 11 13 12 9 6 10 16 19 12 7 18 14 14 8 0 5 6 11 10 10 8 11 9 9 9 8 8 8 2 5 10 13 14
12 11 13 16 18 29 31 23 25 22 21 23 12 12 14 13 14 15 15 13 12 8 9 12 16 4 4 7 12 11 6 4 7 6 10 10 6 7 9 6 8 8 11 6 5 2 5 11 14
16 17 16 18 24 23 27 26 17 25 31 18 11 8 13 15 15 15 16 18 15 13 11 8 11 11 3 10 10 15 15 10 5 3 6 10 11 11 10 8 9 10 10 3 6 3 4 10 13
17 13 14 14 25 20 14 22 20 30 23 27 15 12 12 17 14 16 19 20 18 14 11 11 13 10 8 6 1 5 8 10 8 9 10 9 12 14 12 12 15 13 8 8 9 6 3 11 10
17 23 19 12 23 29 31 25 9 11 19 18 18 17 18 17 15 19 21 20 19 18 16 16 15 14 14 11 4 7 8 11 14 17 11 9 13 13 14 18 17 14 13 10 10 9 3 6 9
18 17 16 20 21 18 23 24 20 9 16 16 19 19 18 20 19 20 20 20 17 19 16 14 16 16 17 18 13 11 4 10 7 16 12 13 9 14 22 17 16 16 17 13 11 7 12 10 11
16 15 22 23 31 27 18 29 23 14 11 21 17 21 19 16 17 17 20 22 19 19 19 17 14 15 18 19 13 11 11 7 6 15 14 9 14 17 19 20 12 15 16 16 15 15 18 19 19
12 14 24 25 26 25 19 24 28 26 24 19 12 21 23 19 19 20 21 23 23 20 20 20 20 19 17 21 16 9 10 12 10 7 13 14 14 13 14 16 12 11 15 15 17 18 21 22 20
14 18 19 23 25 19 18 15 18 18 22 9 12 13 17 25 31 32 35 33 29 25 23 23 23 22 22 22 20 16 11 14 10 7 7 10 8 12 12 8 9 12 11 11 14 18 21 26 25
22 21 18 19 14 11 10 20 18 18 21 17 16 22 29 26 29 33 27 25 26 29 30 27 28 25 24 24 25 26 22 18 16 16 17 12 12 9 9 10 8 8 10 15 14 19 27 28 31
23 19 18 14 10 14 17 18 20 21 24 26 15 18 15 31 27 25 28 36 29 31 29 32 30 32 30 27 27 26 27 27 18 20 19 19 13 12 15 12 8 8 8 11 15 20 22 27 32
23 18 15 13 16 12 14 15 20 11 12 14 18 20 24 21 36 31 20 13 28 18 26 32 34 32 33 32 31 29 29 27 23 22 26 22 23 22 17 14 10 7 13 21 30 26 31 34 34
23 16 15 16 18 18 21 19 6 6 11 22 22 21 21 20 15 17 28 36 38 53 40 38 40 37 35 35 33 31 30 28 26 30 34 31 27 26 21 18 12 12 7 15 30 21 22 32 37
23 17 18 15 22 19 18 13 8 9 10 17 26 27 19 23 23 29 29 35 50 49 48 50 42 41 41 39 36 34 33 33 32 39 31 32 31 30 31 23 22 21 23 28 26 23 26 25 36
24 19 17 17 21 19 11 2 8 16 37 32 34 33 39 35 30 30 35 37 39 42 44 44 41 42 41 41 42 39 38 40 44 46 47 46 39 38 35 35 35 32 32 26 16 23 25 33 35
28 25 20 19 21 20 12 6 15 22 24 21 20 34 31 37 34 33 35 40 42 43 42 42 39 40 40 41 41 42 46 48 49 50 51 50 51 49 49 48 44 41 39 33 28 30 26 39 46
Wind_Direction
342 331 332 25 118 316 327 327 324 316 328 328 315 318 315 325 319 313 309 319 332 329 327 328 326 322 318 313 302 278 262 250 250 245 259 269 277 236 194 134 354 29 3 348 345 8 13 5 359
321 323 353 91 267 324 300 315 321 315 317 314 314 312 314 321 318 314 292 324 321 331 326 333 329 325 322 316 305 269 247 242 225 215 251 264 255 149 165 351 33 35 45 350 360 19 12 8 3
324 317 328 6 324 323 311 314 315 309 308 312 309 307 308 310 308 309 310 318 322 333 331 334 333 327 318 311 310 279 249 237 205 221 234 263 154 142 166 24 51 57 31 354 11 16 13 13 9
314 317 313 314 309 311 318 320 312 305 305 301 305 301 308 304 303 292 312 316 329 334 333 337 331 324 316 301 292 289 227 198 192 198 203 155 141 100 48 49 70 57 37 357 356 8 19 19 20
310 312 311 300 306 314 316 317 309 305 303 303 291 293 299 309 295 294 315 313 325 327 330 337 333 323 312 295 288 276 230 181 181 176 176 160 143 102 68 73 84 76 40 7 8 12 20 15 17
307 311 308 306 308 312 316 317 318 313 309 311 303 298 294 293 308 306 310 324 325 325 332 339 334 321 312 284 293 246 218 182 171 171 169 169 152 130 72 86 70 52 49 359 13 22 27 20 19
303 306 302 306 313 315 310 314 313 295 297 302 294 297 293 297 303 309 326 320 324 325 331 339 334 315 307 280 273 226 185 170 162 168 168 171 155 127 102 62 58 26 34 9 26 32 26 24 20
300 301 303 309 308 310 308 312 309 305 299 297 287 291 294 292 297 306 319 325 333 335 335 333 324 316 299 280 235 177 160 155 161 166 164 167 154 142 82 71 61 57 11 16 23 36 29 23 21
296 300 304 304 304 308 311 312 307 305 298 289 291 291 293 299 299 313 321 329 331 341 341 335 323 306 286 241 184 161 151 154 157 165 162 158 124 105 89 58 61 43 27 30 25 28 19 20 23
301 302 304 304 310 320 321 318 321 315 313 305 299 292 296 296 308 319 337 335 332 355 352 354 359 332 202 181 164 153 150 147 145 150 155 166 138 160 156 145 53 29 23 28 3 11 19 17 18
301 302 310 325 319 324 328 326 336 329 315 311 309 303 296 292 305 309 335 345 347 358 1 16 35 45 110 148 149 141 139 145 142 146 159 167 122 102 94 69 41 29 18 7 1 13 15 12 11
295 332 330 320 315 331 328 345 339 337 312 314 310 297 287 279 271 314 325 349 357 4 18 26 36 51 114 143 135 135 140 149 152 163 170 178 194 188 26 23 6 14 10 356 12 40 15 358 21
310 88 295 319 358 327 333 336 342 352 352 342 310 283 268 272 268 298 299 346 357 20 20 22 26 49 121 139 133 144 157 171 164 168 170 189 211 247 299 11 355 2 5 354 324 38 335 346 6
291 267 330 352 219 340 338 323 345 343 9 353 324 267 270 277 276 290 287 320 4 21 37 25 36 90 132 133 145 158 185 186 194 184 194 210 218 222 263 325 337 335 2 356 291 8 346 357 6
296 263 215 333 269 279 304 309 331 326 315 339 330 268 268 276 265 282 292 293 346 2 28 37 39 112 143 158 176 182 248 251 214 225 207 215 241 248 269 301 321 326 348 341 319 359 4 24 19
264 251 253 239 250 269 286 300 311 299 316 315 330 277 272 283 279 272 292 300 298 333 350 28 34 71 199 210 208 229 285 280 233 222 231 262 235 238 259 301 332 319 347 339 324 266 339 21 20
273 254 247 229 240 265 289 279 308 319 301 309 308 296 281 282 291 294 294 305 309 309 310 333 3 35 79 229 245 265 261 277 247 246 260 272 272 260 271 287 322 317 328 340 319 275 342 10 359
283 243 234 239 234 255 265 303 296 296 296 320 321 310 296 287 280 301 297 298 303 312 302 298 311 343 5 25 281 279 274 273 280 268 280 291 293 266 268 284 299 313 312 315 299 285 288 350 351
264 228 206 223 247 246 262 284 269 326 311 317 334 331 323 315 294 283 286 300 302 313 310 301 291 305 312 322 313 50 5 314 281 276 282 308 297 291 289 302 290 284 280 301 298 290 221 247 319
262 259 255 218 231 238 274 267 267 20 323 297 301 338 334 317 320 303 290 290 291 303 299 295 294 288 300 300 302 308 284 317 247 278 293 273 268 266 289 296 300 278 271 278 277 290 248 261 280
237 235 237 214 224 254 239 228 182 189 233 258 291 307 311 306 303 303 296 291 295 294 295 296 284 290 278 284 284 272 290 333 238 233 271 273 270 280 287 291 288 274 264 270 262 256 243 270 280
225 247 231 236 265 271 243 214 216 240 243 263 280 294 294 320 311 313 304 293 293 295 296 295 290 279 268 271 275 274 257 251 281 236 249 269 275 289 309 304 282 277 261 279 267 258 249 261 279
247 243 252 239 256 259 262 256 257 248 261 283 310 281 309 311 312 327 326 306 291 291 287 281 282 280 284 283 278 282 259 264 278 254 256 272 292 286 307 330 343 310 283 261 274 257 253 258 274
252 255 257 259 259 289 256 247 239 254 235 250 278 295 294 280 299 329 323 306 291 289 286 284 283 284 279 278 280 275 272 264 263 267 271 260 293 285 303 304 312 337 279 278 277 275 274 279 270
257 270 290 286 285 235 227 235 238 233 249 247 246 275 254 322 316 306 326 315 288 282 290 290 285 285 281 276 276 274 269 268 267 281 267 264 270 281 303 293 296 328 348 332 321 316 306 294 273
263 272 285 272 260 233 209 213 237 234 269 286 282 280 273 285 309 281 301 315 285 271 295 294 287 284 282 279 275 274 271 268 275 287 271 263 262 274 276 273 255 242 269 301 284 303 307 307 292
261 268 267 251 236 223 236 252 304 282 221 245 270 267 264 251 258 274 287 285 238 288 298 296 288 281 278 273 272 269 268 262 261 282 275 263 261 261 263 258 260 247 239 289 264 263 281 296 292
249 261 260 252 251 250 264 277 282 272 296 208 254 263 268 235 276 300 310 277 279 291 291 286 285 281 276 276 272 269 268 264 246 239 255 259 250 249 248 243 243 233 231 238 240 251 251 269 289
256 252 256 259 252 261 279 330 209 196 230 243 244 269 281 269 293 291 292 290 285 286 285 285 281 279 277 275 272 270 266 263 259 257 251 254 252 242 242 243 248 249 246 233 246 228 245 246 258
252 250 250 256 259 270 268 229 229 224 224 221 241 255 277 265 284 283 289 291 293 287 287 287 286 284 281 278 276 273 269 268 264 262 262 261 259 255 253 253 250 246 242 238 211 207 198 246 253
Height
11032 11025 11022 11023 11018 11022 11018 11017 11015 11012 11010 11008 11006 11005 11005 11003 11000 10997 10995 10993 10990 10987 10982 10978 10975 10971 10969 10966 10965 10965 10966 10968 10970 10973 10976 10976 10975 10975 10976 10977 10977 10976 10973 10970 10967 10967 10963 10957 10952
11031 11024 11029 11025 11023 11021 11018 11012 11010 11007 11005 11007 11004 11002 11001 10999 10998 10994 10992 10990 10987 10983 10979 10974 10971 10968 10965 10963 10961 10960 10963 10965 10968 10972 10974 10975 10975 10975 10976 10976 10976 10974 10972 10969 10967 10966 10963 10957 10951
11028 11026 11024 11019 11019 11016 11015 11010 11007 11003 11004 11002 11001 10998 10999 10996 10994 10993 10989 10987 10983 10980 10975 10971 10968 10965 10962 10959 10958 10957 10959 10963 10967 10970 10973 10975 10976 10976 10977 10977 10976 10974 10972 10969 10968 10967 10963 10957 10952
11030 11024 11023 11020 11017 11016 11012 11007 11002 11001 11004 11001 10999 10993 10997 10993 10990 10989 10986 10983 10979 10975 10971 10969 10966 10962 10958 10956 10955 10955 10957 10961 10965 10969 10973 10975 10976 10976 10978 10977 10977 10975 10973 10971 10969 10967 10964 10959 10954
11030 11026 11023 11021 11017 11014 11009 11004 11001 10999 11000 10998 10998 10993 10993 10992 10988 10986 10984 10980 10976 10972 10970 10966 10962 10958 10955 10953 10953 10955 10957 10960 10965 10969 10972 10973 10975 10976 10976 10977 10977 10975 10974 10972 10970 10969 10964 10961 10955
11024 11023 11019 11018 11015 11009 11003 11000 10997 10996 10995 10994 10995 10992 10991 10991 10984 10982 10983 10977 10974 10970 10967 10964 10959 10954 10952 10951 10952 10953 10955 10959 10964 10968 10970 10972 10973 10975 10977 10978 10977 10975 10973 10972 10972 10969 10965 10960 10955
11016 11015 11011 11008 11007 11005 11001 10997 10995 10995 10991 10992 10992 10989 10988 10989 10984 10982 10978 10975 10971 10968 10964 10961 10955 10951 10949 10950 10951 10952 10954 10958 10962 10966 10969 10972 10974 10976 10977 10977 10976 10976 10973 10972 10972 10969 10966 10961 10957
11012 11009 11005 11002 11002 11001 10997 10995 10992 10993 10989 10989 10990 10987 10984 10985 10982 10982 10979 10973 10966 10966 10962 10956 10950 10948 10947 10948 10950 10951 10953 10958 10962 10966 10970 10973 10975 10976 10978 10976 10976 10974 10974 10971 10971 10969 10966 10961 10956
11007 11008 11002 11000 10998 10998 10996 10992 10991 10989 10988 10986 10984 10984 10981 10982 10980 10980 10977 10972 10969 10966 10959 10951 10945 10944 10945 10947 10948 10950 10953 10958 10963 10967 10971 10974 10977 10979 10979 10978 10977 10974 10974 10971 10970 10969 10966 10962 10957
11003 11004 11000 10999 10997 10996 10993 10991 10989 10987 10984 10983 10982 10982 10982 10978 10976 10975 10973 10971 10969 10963 10957 10950 10944 10942 10943 10946 10948 10950 10954 10960 10966 10970 10973 10974 10978 10978 10981 10980 10978 10975 10973 10971 10970 10968 10966 10963 10959
11001 10999 10998 11000 10996 10993 10990 10987 10985 10985 10983 10981 10980 10980 10981 10979 10974 10973 10973 10972 10968 10967 10959 10951 10946 10945 10945 10947 10949 10952 10958 10964 10969 10971 10974 10975 10976 10977 10979 10980 10979 10976 10974 10972 10971 10970 10967 10965 10961
10995 11002 10991 10992 10991 10990 10986 10985 10983 10981 10981 10979 10978 10978 10977 10977 10976 10974 10972 10972 10970 10965 10960 10955 10952 10950 10949 10950 10953 10956 10960 10966 10968 10972 10974 10975 10976 10977 10978 10979 10978 10977 10975 10972 10971 10970 10968 10963 10963
10997 11001 10999 10989 10989 10990 10985 10985 10983 10979 10980 10979 10977 10976 10975 10974 10974 10973 10974 10975 10972 10968 10963 10961 10956 10953 10954 10955 10957 10962 10963 10966 10970 10973 10975 10975 10975 10977 10977 10977 10977 10977 10974 10972 10971 10969 10965 10962 10961
10993 10993 10993 10993 10988 10985 10982 10982 10981 10978 10977 10977 10976 10976 10975 10975 10974 10973 10973 10973 10975 10973 10971 10965 10962 10960 10961 10962 10963 10965 10967 10969 10971 10973 10975 10975 10975 10975 10975 10976 10976 10976 10975 10973 10971 10968 10965 10963 10961
10990 10988 10988 10987 10984 10980 10977 10979 10980 10977 10975 10975 10974 10974 10974 10976 10975 10974 10972 10973 10973 10973 10972 10971 10968 10967 10966 10967 10967 10968 10969 10970 10971 10972 10975 10975 10976 10975 10975 10975 10975 10976 10974 10973 10971 10969 10969 10965 10964
10985 10982 10980 10979 10976 10974 10976 10977 10978 10975 10972 10971 10967 10970 10972 10974 10974 10974 10974 10974 10974 10975 10973 10972 10972 10970 10969 10969 10969 10970 10971 10971 10970 10970 10972 10974 10975 10975 10974 10974 10974 10974 10972 10970 10969 10969 10969 10966 10963
10979 10975 10974 10976 10973 10973 10972 10973 10974 10971 10968 10967 10966 10965 10969 10971 10973 10973 10974 10973 10973 10973 10973 10973 10972 10971 10971 10971 10971 10970 10969 10970 10971 10971 10970 10970 10970 10971 10971 10972 10972 10970 10969 10969 10969 10969 10969 10967 10965
10973 10971 10971 10972 10970 10971 10971 10971 10968 10968 10969 10964 10965 10964 10964 10967 10971 10973 10973 10972 10973 10973 10972 10972 10973 10974 10973 10971 10970 10969 10969 10969 10968 10968 10969 10968 10968 10968 10969 10969 10970 10969 10968 10967 10967 10968 10968 10966 10966
10967 10969 10969 10970 10967 10970 10970 10970 10966 10968 10971 10968 10966 10965 10966 10966 10968 10970 10971 10971 10971 10971 10970 10970 10971 10972 10973 10973 10971 10969 10967 10967 10966 10966 10965 10965 10965 10965 10966 10967 10967 10968 10967 10966 10966 10966 10965 10964 10964
10961 10964 10964 10965 10964 10966 10969 10965 10968 10968 10971 10969 10968 10968 10968 10966 10967 10968 10968 10968 10969 10968 10969 10970 10968 10969 10970 10969 10969 10968 10967 10966 10963 10963 10962 10963 10964 10964 10963 10963 10963 10965 10965 10964 10964 10964 10962 10961 10962
10956 10958 10958 10958 10961 10963 10964 10963 10962 10955 10961 10969 10967 10967 10968 10967 10967 10967 10966 10965 10965 10965 10966 10965 10967 10965 10966 10965 10966 10967 10966 10965 10963 10961 10960 10962 10961 10960 10960 10960 10959 10961 10961 10961 10961 10961 10961 10961 10961
10956 10953 10953 10954 10952 10952 10952 10956 10961 10956 10962 10962 10962 10965 10968 10969 10968 10967 10967 10964 10961 10962 10963 10962 10963 10963 10963 10962 10961 10962 10963 10963 10962 10960 10960 10959 10958 10958 10956 10956 10957 10957 10957 10959 10958 10958 10958 10958 10958
10949 10948 10948 10950 10949 10948 10948 10950 10952 10957 10956 10962 10961 10962 10964 10964 10969 10971 10969 10966 10961 10960 10960 10961 10960 10960 10959 10957 10957 10957 10959 10960 10961 10960 10958 10957 10956 10957 10954 10954 10954 10954 10954 10955 10956 10955 10955 10955 10955
10941 10944 10947 10946 10946 10947 10948 10945 10951 10952 10954 10957 10957 10956 10959 10961 10963 10964 10963 10961 10957 10952 10952 10953 10956 10956 10956 10955 10954 10954 10954 10955 10956 10957 10956 10955 10956 10956 10954 10951 10951 10951 10950 10952 10951 10952 10952 10950 10950
10937 10938 10939 10941 10946 10944 10945 10946 10945 10949 10953 10952 10951 10954 10955 10950 10957 10955 10956 10956 10953 10946 10940 10945 10948 10950 10951 10950 10950 10949 10948 10949 10951 10951 10951 10952 10952 10952 10951 10949 10948 10948 10949 10949 10948 10946 10944 10944 10943
10932 10935 10937 10936 10940 10941 10945 10944 10937 10948 10947 10958 10952 10948 10947 10954 10959 10956 10952 10944 10944 10942 10937 10936 10942 10943 10942 10943 10943 10942 10941 10942 10946 10946 10943 10944 10947 10946 10945 10945 10943 10942 10943 10944 10943 10940 10939 10938 10936
10928 10933 10933 10932 10934 10936 10940 10938 10937 10941 10943 10942 10944 10949 10948 10954 10951 10952 10944 10940 10932 10931 10933 10933 10934 10936 10935 10935 10934 10935 10934 10939 10944 10946 10941 10939 10940 10940 10940 10939 10939 10938 10936 10936 10934 10934 10935 10934 10928
10926 10928 10927 10928 10928 10931 10934 10934 10935 10936 10935 10931 10932 10945 10947 10948 10942 10938 10940 10938 10930 10929 10927 10930 10928 10928 10926 10925 10925 10926 10927 10928 10931 10932 10926 10927 10929 10929 10931 10932 10930 10928 10922 10923 10927 10927 10927 10925 10920
10919 10922 10922 10923 10922 10926 10930 10929 10931 10932 10928 10928 10929 10929 10937 10939 10937 10941 10939 10936 10933 10928 10922 10921 10922 10919 10916 10914 10912 10912 10914 10913 10912 10912 10914 10914 10916 10918 10919 10920 10920 10920 10917 10916 10918 10916 10910 10913 10909
10912 10914 10917 10917 10917 10919 10923 10922 10924 10924 10925 10926 10926 10924 10923 10927 10926 10927 10929 10928 10926 10920 10914 10910 10909 10906 10904 10901 10901 10900 10899 10898 10898 10898 10899 10900 10902 10904 10905 10905 10906 10908 10909 10908 10913 10899 10895 10892 10894